[[{"header":{"parameterUnit":"m.s-1","parameterCategory":1,"la1":30.2991,"la2":30.254,"lo1":-89.0895,"lo2":-89.0444,"dy":0.0017,"dx":0.0017,"nx":28,"ny":28,"refTime":"2023-11-01T03:00:00:Z","depth":0,"parameterNumber":2,"parameterNumberName":"U-component_of_WINDS"},"data":[0,0,0,0,0,0,0,0,0,0,0,0,0,0,0,0,0,0,0,0,0,0,0,0,0,0,0,0,0,0,0,0,0,0,0,0,0,0,0,0,0,0,0,0,0,0,0,0,0,0,0,0,0,0,0,0,0,0,-1.6021,-1.6022,0,-1.6077,-1.6077,-1.6078,-1.6037,-1.6035,-1.6033,-1.6032,-1.6089,-1.6092,-1.6095,0,0,0,0,0,0,0,0,0,0,0,0,0,-1.5878,-1.5881,-1.6021,-1.6022,-1.6022,-1.6077,-1.6077,-1.6078,-1.6037,-1.6035,-1.6033,-1.6031,-1.6087,-1.6091,-1.6095,0,0,0,0,0,0,0,0,0,0,0,0,0,-1.5937,-1.5881,-1.6021,-1.6009,-1.6008,-1.6077,-1.6078,-1.6078,-1.6038,-1.6035,-1.6032,-1.603,-1.6086,-1.6091,-1.6096,-1.6179,0,0,-1.611,-1.6112,0,0,0,0,0,0,0,0,-1.5934,-1.5943,-1.601,-1.601,-1.6009,-1.6047,-1.6048,-1.6112,-1.6038,-1.6026,-1.6032,-1.6028,-1.6077,-1.6082,-1.6099,-1.6182,-1.6185,-1.6111,-1.6114,-1.6116,-1.6117,0,0,0,0,0,0,0,-1.593,-1.594,-1.6043,-1.6011,-1.601,-1.6,-1.6005,-1.606,-1.6066,-1.6027,-1.6024,-1.6032,-1.6076,-1.6094,-1.61,-1.6185,-1.6111,-1.6115,-1.6118,-1.612,-1.6339,-1.6341,0,0,0,0,0,0,-1.5927,-1.5937,-1.6041,-1.6045,-1.5964,-1.6004,-1.6011,-1.6038,-1.6065,-1.6067,-1.6034,-1.6029,-1.6087,-1.6094,-1.6102,-1.6201,-1.6116,-1.612,-1.6123,-1.6336,-1.6339,-1.6343,0,0,0,0,0,0,-1.5924,-1.5937,-1.6039,-1.599,-1.6002,-1.601,-1.6041,-1.604,-1.6058,-1.607,-1.6071,-1.6051,-1.6085,-1.6095,-1.616,-1.6202,-1.6122,-1.6127,-1.6332,-1.6337,-1.6341,-1.6401,0,0,0,0,0,0,-1.592,-1.5936,-1.5968,-1.5991,-1.6005,-1.6097,-1.6043,-1.6043,-1.6067,-1.6061,-1.6087,-1.6089,-1.6084,-1.6153,-1.6165,-1.6207,-1.613,-1.6329,-1.6334,-1.634,-1.6395,-1.6407,-1.6417,0,0,0,0,0,-1.5915,-1.5983,-1.597,-1.5983,-1.6046,-1.61,-1.6108,-1.6101,-1.607,-1.6102,-1.611,-1.6088,-1.6196,-1.616,-1.6173,-1.6218,-1.6326,-1.6333,-1.6339,-1.639,-1.6404,-1.6416,0,0,0,0,0,0,-1.5966,-1.5986,-1.5972,-1.6049,-1.6073,-1.6093,-1.6134,-1.6117,-1.615,-1.6144,-1.6134,-1.614,-1.6208,-1.6219,-1.618,-1.6299,-1.6256,-1.6265,-1.629,-1.6304,-1.6314,-1.631,-1.6134,0,0,0,0,0,-1.5986,-1.6028,-1.6044,-1.611,-1.6123,-1.6126,-1.615,-1.6142,-1.6167,-1.6177,-1.6189,-1.6213,-1.6252,-1.6278,-1.6315,-1.6396,-1.64,-1.6433,-1.6444,-1.6452,-1.6461,-1.6503,-1.6518,-1.6364,-1.6364,-1.6364,0,0,-1.6028,-1.6044,-1.6072,-1.6121,-1.6139,-1.6182,-1.6135,-1.6184,-1.6216,-1.6184,-1.6246,-1.6256,-1.6282,-1.6355,-1.6388,-1.6367,-1.6504,-1.6461,-1.6468,-1.6472,-1.6512,-1.6526,-1.6539,-1.6369,-1.6368,-1.6367,0,0,-1.6127,-1.6144,-1.6201,-1.6219,-1.6246,-1.6248,-1.6261,-1.6283,-1.6289,-1.6351,-1.6327,-1.6365,-1.6433,-1.6452,-1.6471,-1.6576,-1.6556,-1.6588,-1.6644,-1.6686,-1.6698,-1.6709,-1.6746,-1.6759,-1.6596,-1.6596,-1.6596,0,-1.6176,-1.6241,-1.6232,-1.6283,-1.6304,-1.6277,-1.6334,-1.6352,-1.639,-1.6406,-1.6381,-1.6464,-1.648,-1.6557,-1.6582,-1.6598,-1.6613,-1.6585,-1.6697,-1.6708,-1.6717,-1.6752,-1.6766,-1.66,-1.6599,-1.6599,-1.6599,0,-1.63,-1.6345,-1.6388,-1.6425,-1.6452,-1.6505,-1.6504,-1.6531,-1.6521,-1.6525,-1.6588,-1.6606,-1.6645,-1.6663,-1.6654,-1.6738,-1.6724,-1.6698,-1.6654,-1.6736,-1.6769,-1.6782,-1.6605,-1.6604,-1.6603,-1.6602,0,0,-1.6434,-1.6464,-1.648,-1.6496,-1.6523,-1.6557,-1.6609,-1.6647,-1.6671,-1.6697,-1.674,-1.6797,-1.6773,-1.6795,-1.6787,-1.6824,-1.6905,-1.6793,-1.6794,-1.6813,-1.6998,-1.7017,-1.7033,-1.6891,-1.6894,-1.6896,-1.6995,0,-1.6534,-1.6625,-1.6617,-1.6702,-1.6744,-1.6717,-1.6762,-1.6783,-1.6788,-1.6823,-1.6827,-1.6868,-1.6834,-1.6846,-1.6881,-1.6887,-1.6942,-1.688,-1.6931,-1.6933,-1.6925,-1.705,-1.7071,-1.7164,-1.7008,-1.701,-1.7012,0,-1.6664,-1.6694,-1.6784,-1.6803,-1.682,-1.6861,-1.6895,-1.6929,-1.6952,-1.6952,-1.6975,-1.6961,-1.7012,-1.6966,-1.7036,-1.6994,-1.7014,-1.702,-1.7024,-1.7029,-1.6978,-1.7058,-1.7194,-1.7208,-1.7032,-1.7031,-1.7029,0,-1.6752,-1.6816,-1.6877,-1.6891,-1.6916,-1.6945,-1.6956,-1.6976,-1.6999,-1.7028,-1.7043,-1.7078,-1.7097,-1.7124,-1.712,-1.7087,-1.7191,-1.7144,-1.7192,-1.7192,-1.7216,-1.7215,-1.7357,-1.7229,-1.7228,-1.7228,-1.7228,0,-1.6865,-1.6921,-1.6917,-1.6955,-1.7016,-1.7006,-1.7067,-1.7075,-1.7092,-1.7131,-1.711,-1.7146,-1.7137,-1.7173,-1.717,-1.7228,-1.7237,-1.7238,-1.7237,-1.724,-1.724,-1.7254,-1.7247,-1.7232,-1.7231,-1.723,-1.723,0,-1.6975,-1.6975,-1.704,-1.7057,-1.7062,-1.7107,-1.7121,-1.7156,-1.7158,-1.7207,-1.7218,-1.7221,-1.7262,-1.726,-1.7306,-1.7304,-1.7375,-1.7366,-1.7368,-1.7366,-1.7414,-1.7409,-1.757,-1.759,-1.7449,-1.745,-1.7451,0,-1.7048,-1.709,-1.7111,-1.7135,-1.7148,-1.7188,-1.7211,-1.7202,-1.7227,-1.7255,-1.7287,-1.7326,-1.7357,-1.7423,-1.7429,-1.7464,-1.7456,-1.751,-1.7461,-1.7463,-1.7456,-1.7454,-1.7458,-1.7519,-1.7521,-1.7522,-1.7523,0,-1.7176,-1.7173,-1.7208,-1.7242,-1.727,-1.7296,-1.7321,-1.7341,-1.7335,-1.7364,-1.7406,-1.7429,-1.7476,-1.7515,-1.7548,-1.7559,-1.754,-1.7538,-1.7551,-1.7556,-1.7555,-1.7556,-1.7394,-1.7535,-1.7534,-1.7533,-1.7532,-1.7532,-1.7269,-1.7305,-1.7325,-1.7364,-1.7381,-1.7404,-1.7437,-1.7443,-1.7478,-1.7515,-1.7508,-1.7554,-1.7574,-1.7617,-1.7631,-1.7666,-1.7647,-1.7666,-1.7671,-1.7675,-1.7681,-1.7549,-1.7672,-1.7672,-1.7672,-1.7671,-1.7671,0,-1.7396,-1.7408,-1.7443,-1.7478,-1.7508,-1.7487,-1.7512,-1.7539,-1.758,-1.76,-1.763,-1.7677,-1.7714,-1.7723,-1.7758,-1.7785,-1.7777,-1.7794,-1.7792,-1.7795,-1.7696,-1.7681,-1.78,-1.78,-1.78,-1.78,-1.78,-1.78,-1.7466,-1.7525,-1.7525,-1.7592,-1.7603,-1.7648,-1.7664,-1.7684,-1.77,-1.7754,-1.7784,-1.779,-1.7805,-1.7841,-1.7873,-1.7875,-1.7889,-1.7909,-1.7908,-1.7815,-1.7802,-1.779,-1.7776,-1.7913,-1.7913,-1.8003,-1.8004,-1.8005]},{"header":{"parameterUnit":"m.s-1","parameterCategory":1,"la1":30.2991,"la2":30.254,"lo1":-89.0895,"lo2":-89.0444,"dy":0.0017,"dx":0.0017,"nx":28,"ny":28,"refTime":"2023-11-01T03:00:00:Z","depth":0,"parameterNumber":3,"parameterNumberName":"V-component_of_WINDS"},"data":[0,0,0,0,0,0,0,0,0,0,0,0,0,0,0,0,0,0,0,0,0,0,0,0,0,0,0,0,0,0,0,0,0,0,0,0,0,0,0,0,0,0,0,0,0,0,0,0,0,0,0,0,0,0,0,0,0,0,-7.2456,-7.2457,0,-7.2578,-7.258,-7.2581,-7.248,-7.2476,-7.2472,-7.2468,-7.2587,-7.2594,-7.2601,0,0,0,0,0,0,0,0,0,0,0,0,0,-7.2126,-7.2132,-7.2455,-7.2457,-7.2459,-7.2578,-7.258,-7.2582,-7.2481,-7.2476,-7.2471,-7.2466,-7.2584,-7.2593,-7.2601,0,0,0,0,0,0,0,0,0,0,0,0,0,-7.2261,-7.2134,-7.2455,-7.2423,-7.2421,-7.2578,-7.258,-7.2582,-7.2482,-7.2476,-7.247,-7.2464,-7.2582,-7.2592,-7.2602,-7.2795,0,0,-7.2635,-7.264,0,0,0,0,0,0,0,0,-7.2253,-7.2273,-7.2426,-7.2426,-7.2424,-7.2508,-7.2507,-7.2653,-7.2484,-7.2459,-7.2468,-7.2461,-7.2565,-7.2577,-7.2613,-7.2801,-7.2806,-7.2636,-7.2642,-7.2647,-7.265,0,0,0,0,0,0,0,-7.2244,-7.2267,-7.2504,-7.2429,-7.2427,-7.24,-7.2412,-7.2534,-7.2546,-7.2461,-7.2454,-7.247,-7.2563,-7.2603,-7.2615,-7.2807,-7.2636,-7.2645,-7.2652,-7.2656,-7.3156,-7.3162,0,0,0,0,0,0,-7.2239,-7.226,-7.25,-7.2508,-7.2322,-7.2411,-7.2425,-7.2487,-7.2544,-7.2547,-7.2475,-7.2465,-7.2588,-7.2603,-7.2619,-7.2847,-7.2647,-7.2657,-7.2663,-7.3149,-7.3157,-7.3164,0,0,0,0,0,0,-7.2232,-7.2261,-7.2495,-7.2382,-7.241,-7.2423,-7.2494,-7.2493,-7.2533,-7.2555,-7.2556,-7.2515,-7.2584,-7.2604,-7.2752,-7.2849,-7.2662,-7.2671,-7.3141,-7.3151,-7.3161,-7.3304,0,0,0,0,0,0,-7.2223,-7.226,-7.2335,-7.2385,-7.2416,-7.2629,-7.2501,-7.25,-7.2553,-7.254,-7.2593,-7.2595,-7.2581,-7.2737,-7.2763,-7.2861,-7.268,-7.3132,-7.3145,-7.3158,-7.3291,-7.3318,-7.3342,0,0,0,0,0,-7.2212,-7.2369,-7.2339,-7.2369,-7.2511,-7.2634,-7.2652,-7.2634,-7.2561,-7.2635,-7.2649,-7.2594,-7.2835,-7.2753,-7.2781,-7.2884,-7.3126,-7.3142,-7.3157,-7.3279,-7.3313,-7.3341,0,0,0,0,0,0,-7.2328,-7.2375,-7.2342,-7.2521,-7.2575,-7.2617,-7.2711,-7.267,-7.2744,-7.2729,-7.2701,-7.2714,-7.2869,-7.2891,-7.2799,-7.3072,-7.2968,-7.299,-7.3052,-7.3084,-7.3109,-7.3099,-7.2689,0,0,0,0,0,-7.2376,-7.2475,-7.2509,-7.2663,-7.2692,-7.2697,-7.275,-7.2732,-7.2785,-7.2807,-7.2831,-7.2883,-7.297,-7.3028,-7.311,-7.3294,-7.3302,-7.3378,-7.3404,-7.3424,-7.3443,-7.3539,-7.3573,-7.3215,-7.3215,-7.3215,0,0,-7.2473,-7.251,-7.2574,-7.2688,-7.2727,-7.2827,-7.2717,-7.2828,-7.2901,-7.2822,-7.2964,-7.2984,-7.304,-7.3206,-7.328,-7.3229,-7.3544,-7.3444,-7.3461,-7.3468,-7.3559,-7.3593,-7.3623,-7.3226,-7.3224,-7.3222,0,0,-7.2701,-7.2741,-7.2873,-7.2915,-7.2977,-7.2979,-7.3011,-7.3059,-7.307,-7.3212,-7.3155,-7.324,-7.3392,-7.3433,-7.3474,-7.3717,-7.3668,-7.3744,-7.3876,-7.3971,-7.3999,-7.4024,-7.4109,-7.414,-7.3763,-7.3764,-7.3764,0,-7.2813,-7.2965,-7.2945,-7.3061,-7.3111,-7.3047,-7.3178,-7.3219,-7.3304,-7.3339,-7.3281,-7.3469,-7.3502,-7.3676,-7.3735,-7.3771,-7.3804,-7.3738,-7.3997,-7.4022,-7.4044,-7.4125,-7.4157,-7.3772,-7.3771,-7.377,-7.377,0,-7.3098,-7.3204,-7.3303,-7.3389,-7.345,-7.3573,-7.3569,-7.3633,-7.3609,-7.3617,-7.376,-7.3798,-7.3885,-7.3925,-7.3903,-7.4096,-7.4062,-7.4002,-7.3896,-7.4088,-7.4163,-7.4193,-7.3785,-7.3782,-7.3779,-7.3777,0,0,-7.3403,-7.3476,-7.3513,-7.355,-7.3613,-7.3693,-7.3812,-7.39,-7.3954,-7.4014,-7.4111,-7.4241,-7.4185,-7.4231,-7.4212,-7.4295,-7.4483,-7.4224,-7.4224,-7.4269,-7.4696,-7.474,-7.4776,-7.4451,-7.4457,-7.4462,-7.469,0,-7.3633,-7.3843,-7.3828,-7.4024,-7.412,-7.406,-7.4163,-7.4212,-7.4222,-7.4302,-7.4311,-7.4403,-7.4324,-7.4351,-7.4431,-7.4443,-7.4568,-7.4427,-7.4538,-7.4543,-7.4525,-7.4816,-7.4863,-7.5077,-7.472,-7.4725,-7.4728,0,-7.3929,-7.4001,-7.4208,-7.4256,-7.4295,-7.4389,-7.4466,-7.4546,-7.4598,-7.4599,-7.4651,-7.4618,-7.4734,-7.4628,-7.4787,-7.4692,-7.4736,-7.4749,-7.4757,-7.4765,-7.4646,-7.483,-7.5145,-7.5177,-7.4774,-7.4771,-7.4767,0,-7.4128,-7.4277,-7.442,-7.4454,-7.4513,-7.458,-7.4607,-7.4653,-7.4706,-7.4774,-7.4807,-7.4887,-7.493,-7.4991,-7.4979,-7.4903,-7.514,-7.5033,-7.5142,-7.5143,-7.5194,-7.519,-7.5519,-7.5226,-7.5225,-7.5225,-7.5224,0,-7.4385,-7.4514,-7.451,-7.4598,-7.4738,-7.4719,-7.4858,-7.4877,-7.4919,-7.5007,-7.4959,-7.5042,-7.5022,-7.5104,-7.5095,-7.5226,-7.5246,-7.5248,-7.5244,-7.5252,-7.5252,-7.528,-7.5264,-7.5233,-7.5231,-7.523,-7.5228,0,-7.4631,-7.4635,-7.4786,-7.483,-7.4844,-7.4946,-7.4982,-7.5063,-7.5069,-7.5181,-7.5206,-7.5214,-7.5308,-7.5302,-7.5407,-7.5401,-7.5563,-7.5542,-7.5546,-7.5541,-7.5649,-7.5639,-7.6006,-7.6052,-7.5731,-7.5734,-7.5737,0,-7.4795,-7.4892,-7.4947,-7.5004,-7.5036,-7.5128,-7.5182,-7.5166,-7.5224,-7.5291,-7.5363,-7.5453,-7.5523,-7.5675,-7.5689,-7.5768,-7.5747,-7.5871,-7.5759,-7.5763,-7.5747,-7.5741,-7.5749,-7.5892,-7.5896,-7.5899,-7.5901,0,-7.5083,-7.508,-7.5161,-7.5244,-7.531,-7.5373,-7.5431,-7.5479,-7.5469,-7.5536,-7.5632,-7.5687,-7.5795,-7.5883,-7.5959,-7.5983,-7.594,-7.5937,-7.5966,-7.5974,-7.5972,-7.5972,-7.5604,-7.5928,-7.5925,-7.5923,-7.5922,-7.5921,-7.5291,-7.5375,-7.5427,-7.5518,-7.556,-7.5615,-7.5693,-7.571,-7.5791,-7.5879,-7.5863,-7.5971,-7.6018,-7.6116,-7.6148,-7.6229,-7.6185,-7.6227,-7.6238,-7.6248,-7.626,-7.596,-7.6243,-7.6242,-7.6241,-7.6241,-7.624,0,-7.5576,-7.5606,-7.5691,-7.5774,-7.5846,-7.5802,-7.5863,-7.5925,-7.602,-7.607,-7.6141,-7.625,-7.6335,-7.6356,-7.6437,-7.6498,-7.648,-7.652,-7.6514,-7.652,-7.6296,-7.6262,-7.6533,-7.6533,-7.6533,-7.6533,-7.6533,-7.6533,-7.5732,-7.587,-7.5873,-7.603,-7.6059,-7.6165,-7.6204,-7.6253,-7.6292,-7.6417,-7.6489,-7.6503,-7.654,-7.6623,-7.6698,-7.6702,-7.6733,-7.6781,-7.6776,-7.6566,-7.6536,-7.6508,-7.6476,-7.6788,-7.6789,-7.6994,-7.6996,-7.6997]}]]